#datint,netname,site,siteID,timestamp,IntT,BattV,AirT2,AirT,AirT_Avg,AirT_Max,AirT_Min,RH_Avg,RH_Max,RH_Min,EA_Avg,Td_Avg,Td_Max,Td_Min,WindS_Smp,WindS_Avg,WindD_Avg,WindD_SD,WindS_Max,ETo,ETr,SoilT4,SoilT8,SoilVWC8,SolarW_Avg,wetstate_Avg,wetT_Avg,Precip_accum,Precip_WPG,Precip_TB
15min,AgWx,beryljct,423,12MAY2018:01:00:00,45.6,12.98,42.4,42.1,42.1,42.2,42.0,77,79,76,0.709,35.5,35.9,35.1,7.19,7.5,44,8.6,11.2,0.00017,0.00020,61.2,63.2,15,0,0,43.2,13.81,0.00,0.00
15min,AgWx,beryljct,423,12MAY2018:01:15:00,45.5,12.97,42.4,42.0,42.0,42.2,42.0,77,78,76,0.699,35.3,35.7,35.0,10.26,7.3,44,8.7,10.3,0.00017,0.00020,61.0,63.1,15,0,0,43.2,13.81,0.00,0.00
15min,AgWx,beryljct,423,12MAY2018:01:30:00,45.4,12.97,42.4,42.0,42.0,42.1,42.0,76,77,75,0.690,35.0,35.4,34.8,5.7,7.0,33,8.0,10.0,0.00017,0.00021,60.9,63.0,15,0,0,43.2,13.81,0.00,0.00
15min,AgWx,beryljct,423,12MAY2018:01:45:00,45.3,12.95,42.5,42.2,42.1,42.3,41.9,76,78,75,0.684,35.2,35.7,34.7,10.7,7.4,22,15,11.0,0.00017,0.00021,60.7,62.8,15,0,0,43.3,13.81,0.00,0.00
15min,AgWx,beryljct,423,12MAY2018:02:00:00,45.2,12.95,42.2,41.5,41.9,42.2,41.5,76,78,74,0.688,34.8,35.2,34.5,7.147,8.4,13,9.2,11.2,0.00018,0.00022,60.5,62.7,15,0,0,43.1,13.81,0.00,0.00
15min,AgWx,beryljct,423,12MAY2018:02:15:00,45.0,12.95,42.0,41.5,41.7,41.7,41.5,76,78,75,0.676,34.6,35.2,34.4,6.489,8.7,9.5,9.4,12.1,0.00018,0.00022,60.3,62.6,15,0,0,42.8,13.81,0.00,0.00
15min,AgWx,beryljct,423,12MAY2018:02:30:00,44.9,12.94,41.9,41.5,41.6,41.7,41.5,76,77,75,0.682,34.4,34.8,34.2,7.3,8.4,12,12,11.3,0.00018,0.00022,60.1,62.5,15,0,0,42.8,13.80,0.00,0.00
15min,AgWx,beryljct,423,12MAY2018:02:45:00,44.7,12.92,41.7,41.4,41.4,41.5,41.3,77,78,76,0.684,34.8,35.0,34.4,6.927,6.3,27,8.8,8.4,0.00015,0.00019,60.0,62.4,15,0,0,42.6,13.81,0.00,0.00
15min,AgWx,beryljct,423,12MAY2018:03:00:00,44.6,12.91,41.8,41.5,41.4,41.5,41.4,77,78,76,0.685,34.8,35.1,34.4,8.62,6.2,40,9.6,8.6,0.00015,0.00019,59.8,62.3,15,0,0,42.7,13.80,0.00,0.00
15min,AgWx,beryljct,423,12MAY2018:03:15:00,44.5,12.91,41.8,41.5,41.5,41.6,41.5,77,78,76,0.690,34.8,35.1,34.5,4.494,6.8,40,9.3,9.7,0.00016,0.00020,59.6,62.2,15,0,0,42.7,13.80,0.00,0.00
15min,AgWx,beryljct,423,12MAY2018:03:30:00,44.5,12.91,41.8,41.5,41.5,41.6,41.5,78,79,76,0.693,35.0,35.4,34.5,5.305,5.3,36,8.2,7.8,0.00014,0.00018,59.5,62.1,15,0,0,42.8,13.80,0.00,0.00
15min,AgWx,beryljct,423,12MAY2018:03:45:00,44.4,12.91,41.9,41.6,41.6,41.6,41.5,77,78,76,0.694,35.0,35.4,34.6,4.823,4.6,31,9.7,6.6,0.00013,0.00017,59.3,62.0,15,0,0,42.8,13.80,0.00,0.00
15min,AgWx,beryljct,423,12MAY2018:04:00:00,44.4,12.9,42.0,41.7,41.7,41.8,41.6,77,78,76,0.695,35.1,35.4,34.8,3.836,4.1,44,7.9,5.6,0.00012,0.00016,59.2,61.9,15,0,0,42.9,13.80,0.00,0.00
15min,AgWx,beryljct,423,12MAY2018:04:15:00,44.5,12.89,42.1,41.9,41.8,41.9,41.6,77,79,76,0.687,35.2,35.7,34.7,3.836,3.9,36,8.1,5.2,0.00012,0.00016,59.0,61.8,15,0,0,43.0,13.80,0.00,0.00
15min,AgWx,beryljct,423,12MAY2018:04:30:00,44.5,12.89,42.2,41.8,41.8,42.0,41.7,77,80,75,0.696,35.2,36.0,34.7,2.324,3.2,33,11,4.4,0.00011,0.00015,58.9,61.7,15,0,0,43.0,13.80,0.00,0.00
15min,AgWx,beryljct,423,12MAY2018:04:45:00,44.5,12.89,42.1,41.7,41.8,41.9,41.7,79,81,76,0.717,35.6,36.3,34.8,2.039,1.6,52,6.9,2.9,0.00006,0.00010,58.7,61.6,15,0,0,42.4,13.80,0.00,0.00
15min,AgWx,beryljct,423,12MAY2018:05:00:00,44.3,12.88,42.0,41.8,41.7,41.9,41.6,79,81,76,0.682,35.5,36.2,34.7,2.061,2.2,46,22,3.0,0.00008,0.00011,58.6,61.5,15,0,23,41.3,13.80,0.00,0.00
15min,AgWx,beryljct,423,12MAY2018:05:15:00,44.0,12.87,42.1,41.7,41.7,41.9,41.6,79,82,75,0.731,35.7,36.5,34.7,2.587,1.3,23,29,2.6,0.00005,0.00008,58.5,61.4,15,0,12,41.1,13.80,0.00,0.00
15min,AgWx,beryljct,423,12MAY2018:05:30:00,43.8,12.87,41.7,41.0,41.4,41.7,41.0,84,87,81,0.741,37.0,37.5,36.3,4.384,4.2,294,14,7.5,0.00009,0.00011,58.3,61.3,15,0,0,41.3,13.80,0.00,0.00
15min,AgWx,beryljct,423,12MAY2018:05:45:00,43.5,12.87,41.1,40.8,40.8,41.1,40.7,85,87,83,0.744,36.7,37.2,36.1,4.801,5.1,290,8.4,7.8,0.00014,0.00025,58.2,61.2,15,0,0,41.3,13.80,0.00,0.00
15min,AgWx,beryljct,423,12MAY2018:06:00:00,43.2,12.86,41.0,40.6,40.6,40.8,40.4,85,86,83,0.726,36.3,37.0,35.9,7.19,6.2,296,10,10.1,0.00017,0.00029,58.1,61.1,15,0,0,41.5,13.80,0.00,0.00
15min,AgWx,beryljct,423,12MAY2018:06:15:00,43.1,12.86,41.0,40.6,40.7,40.7,40.6,84,86,83,0.719,36.3,36.7,36.0,7.804,6.9,284,8.4,11.1,0.00019,0.00032,58.0,61.0,15,0,0,41.8,13.80,0.00,0.00
15min,AgWx,beryljct,423,12MAY2018:06:30:00,42.7,12.86,40.3,39.6,40.1,40.6,39.5,86,87,84,0.706,36.2,36.5,35.6,8.22,8.4,285,10,13.3,0.00019,0.00034,57.8,60.9,15,1,92,40.3,13.82,0.02,0.01
15min,AgWx,beryljct,423,12MAY2018:06:45:00,42.2,12.85,39.4,39.0,39.2,39.5,39.0,89,90,86,0.723,36.0,36.4,35.5,6.489,6.9,288,12,9.1,0.00015,0.00025,57.7,60.8,15,3,100,39.6,13.82,0.00,0.00
15min,AgWx,beryljct,423,12MAY2018:07:00:00,41.8,12.85,39.2,39.0,38.9,39.0,38.8,90,90,89,0.728,36.1,36.4,35.8,5.722,5.4,278,8.0,8.8,0.00014,0.00021,57.6,60.8,15,9,100,39.6,13.83,0.00,0.00
15min,AgWx,beryljct,423,12MAY2018:07:15:00,41.5,12.85,39.4,39.2,39.0,39.3,38.8,89,90,88,0.725,36.0,36.5,35.7,2.959,4.1,275,11,6.3,0.00015,0.00022,57.4,60.7,15,15,100,39.8,13.83,0.00,0.00
15min,AgWx,beryljct,423,12MAY2018:07:30:00,41.5,12.87,39.9,39.7,39.4,39.7,39.2,89,90,89,0.738,36.6,37.0,36.3,2.192,2.7,264,14,6.6,0.00018,0.00023,57.3,60.6,15,25,100,40.4,13.83,0.00,0.01
15min,AgWx,beryljct,423,12MAY2018:07:45:00,41.6,12.88,40.2,40.0,39.8,40.1,39.6,88,89,87,0.736,36.6,37.2,36.4,2.674,3.3,228,11,5.7,0.00023,0.00030,57.2,60.5,15,35,100,41.0,13.83,0.00,0.00
15min,AgWx,beryljct,423,12MAY2018:08:00:00,41.8,12.92,40.6,40.3,40.2,40.3,40.1,88,89,86,0.740,36.8,37.1,36.3,0,1.5,166,25,3.4,0.00034,0.00039,57.0,60.4,15,63,100,42.2,13.84,0.01,0.00
15min,AgWx,beryljct,423,12MAY2018:08:15:00,42.1,12.97,40.8,40.5,40.4,40.7,40.2,87,88,85,0.723,36.7,37.4,36.2,1.469,0.8,108,59,3.3,0.00059,0.00065,57.0,60.3,15,113,76,44.3,13.83,0.00,0.00
15min,AgWx,beryljct,423,12MAY2018:08:30:00,42.3,12.98,41.3,41.1,40.9,41.2,40.5,83,86,81,0.728,36.0,36.9,35.3,0,1.0,289,27,4.0,0.00053,0.00059,56.8,60.2,15,97,0,45.4,13.83,0.00,0.00
15min,AgWx,beryljct,423,12MAY2018:08:45:00,42.9,13.12,42.0,42.0,41.5,42.2,40.9,84,86,82,0.753,36.9,38.2,35.9,1.096,1.2,140,37,3.2,0.00102,0.00111,56.7,60.1,15,209,0,51.1,13.83,0.00,0.00
15min,AgWx,beryljct,423,12MAY2018:09:00:00,44.4,13.31,42.9,43.4,42.5,43.6,41.8,80,84,76,0.740,36.7,37.7,35.7,1.469,1.2,137,36,4.4,0.00163,0.00178,56.7,60.0,15,352,0,63.1,13.83,0.00,0.00
15min,AgWx,beryljct,423,12MAY2018:09:15:00,46.9,13.81,44.0,43.4,43.8,44.4,43.1,78,82,74,0.742,37.3,38.5,36.0,3.749,2.4,153,51,6.0,0.00216,0.00237,56.6,59.9,15,477,0,74.4,13.83,0.00,0.00
15min,AgWx,beryljct,423,12MAY2018:09:30:00,48.7,13.63,44.4,43.8,44.2,45.5,43.4,80,84,77,0.813,38.5,41.0,36.8,4.713,2.1,133,100,5.3,0.00144,0.00159,56.6,59.9,14,279,0,64.6,13.83,0.00,0.00
15min,AgWx,beryljct,423,12MAY2018:09:45:00,48.4,13.68,44.1,44.4,43.7,44.4,43.3,82,84,77,0.808,38.6,39.5,37.3,6.664,6.5,283,11,10.2,0.00090,0.00111,56.6,59.8,14,167,0,49.4,13.83,0.00,0.00
15min,AgWx,beryljct,423,12MAY2018:10:00:00,48.7,14.46,45.6,46.0,45.1,46.2,44.4,78,82,73,0.823,38.7,40.3,37.4,10,9.2,272,11,15.2,0.00202,0.00238,56.6,59.7,14,467,0,57.1,13.83,0.00,0.00
15min,AgWx,beryljct,423,12MAY2018:10:15:00,50.3,14.48,47.1,47.4,46.8,47.7,45.8,75,81,70,0.799,39.3,41.6,37.7,16.57,11.4,270,12,16.6,0.00323,0.00374,56.7,59.6,14,808,0,67.1,13.83,0.00,0.00
15min,AgWx,beryljct,423,12MAY2018:10:30:00,51.5,14.41,48.1,48.4,47.9,48.8,47.2,69,74,65,0.749,38.3,39.9,36.9,10.3,12.9,260,11,18.1,0.00319,0.00382,56.8,59.5,14,753,0,66.3,13.83,0.00,0.00
15min,AgWx,beryljct,423,12MAY2018:10:45:00,52.4,14.42,49.2,49.7,49.0,49.9,48.2,63,69,59,0.742,37.0,39.7,35.5,16.86,14.0,249,8.8,19.1,0.00347,0.00424,56.8,59.5,14,784,0,66.8,13.83,0.00,0.00
15min,AgWx,beryljct,423,12MAY2018:11:00:00,53.3,14.47,50.5,50.5,50.3,51.5,49.4,57,62,53,0.727,35.7,37.8,34.0,13.37,13.3,247,12,19.9,0.00387,0.00477,56.9,59.4,14,826,0,68.6,13.83,0.00,0.00
15min,AgWx,beryljct,423,12MAY2018:11:15:00,54.4,14.37,51.5,51.6,51.3,51.9,50.1,53,58,48,0.672,34.8,37.0,31.8,13.7,13.8,229,14,21.4,0.00425,0.00526,57.0,59.4,14,887,0,70.5,13.83,0.00,0.00
15min,AgWx,beryljct,423,12MAY2018:11:30:00,55.4,14.42,52.5,52.6,52.3,53.1,51.6,51,55,49,0.679,34.9,37.1,33.3,9.05,13.3,225,14,18.4,0.00457,0.00564,57.0,59.3,14,938,0,73.1,13.82,0.00,0.00
15min,AgWx,beryljct,423,12MAY2018:11:45:00,56.2,14.33,52.9,53.1,52.9,53.5,52.3,47,53,42,0.610,33.4,36.1,30.2,14.8,13.0,225,15,18.6,0.00481,0.00595,57.1,59.3,14,961,0,73.8,13.82,0.00,0.00
15min,AgWx,beryljct,423,12MAY2018:12:00:00,57.1,13.9,53.6,53.9,53.6,54.8,52.7,44,49,37,0.584,32.1,34.8,27.9,9.89,11.3,229,21,17.3,0.00533,0.00649,57.2,59.3,14,1043,0,77.3,13.82,0.00,0.00
15min,AgWx,beryljct,423,12MAY2018:12:15:00,58.3,14.02,53.7,53.3,53.6,55.6,51.3,50,55,37,0.728,35.1,39.5,27.7,6.335,10.6,282,15,16.6,0.00474,0.00575,57.4,59.2,14,913,0,73.7,13.81,0.00,0.00
15min,AgWx,beryljct,423,12MAY2018:12:30:00,58.6,13.9,54.0,52.5,53.9,55.5,52.5,44,52,39,0.558,32.6,37.0,29.5,11.55,11.4,263,18,19.0,0.00456,0.00568,57.6,59.2,14,829,0,72.1,13.81,0.00,0.00
15min,AgWx,beryljct,423,12MAY2018:12:45:00,58.6,13.87,54.3,53.1,54.1,56.0,52.3,41,46,36,0.567,30.7,35.4,27.5,8.97,10.9,256,22,17.0,0.00464,0.00581,57.9,59.3,14,829,0,71.4,13.81,0.00,0.00
15min,AgWx,beryljct,423,12MAY2018:13:00:00,58.1,13.91,53.2,53.6,53.0,54.0,52.4,42,48,36,0.510,30.8,34.4,27.6,9.86,9.0,276,19,15.5,0.00310,0.00402,58.2,59.3,14,475,0,64.0,13.81,0.00,0.00
15min,AgWx,beryljct,423,12MAY2018:13:15:00,57.9,13.9,54.5,55.2,54.2,55.7,52.8,40,45,35,0.570,30.2,34.0,26.0,7.738,8.7,261,23,16.6,0.00437,0.00540,58.5,59.3,14,763,0,69.8,13.81,0.00,0.00
15min,AgWx,beryljct,423,12MAY2018:13:30:00,58.4,13.89,54.5,53.9,54.5,55.8,53.6,36,43,31,0.504,28.2,33.5,24.0,3.595,6.6,259,38,13.7,0.00401,0.00492,58.8,59.4,14,656,0,73.0,13.80,0.00,0.00
15min,AgWx,beryljct,423,12MAY2018:13:45:00,58.7,13.87,55.2,56.4,54.9,56.6,53.5,36,42,31,0.540,28.1,33.3,24.2,10.41,5.2,231,49,12.8,0.00375,0.00453,59.0,59.4,14,622,0,72.5,13.80,0.00,0.00
15min,AgWx,beryljct,423,12MAY2018:14:00:00,60.5,13.87,57.4,57.9,57.3,58.6,55.9,34,40,29,0.599,29.4,34.1,24.7,6.226,7.8,200,23,14.7,0.00670,0.00792,59.3,59.5,14,1192,0,86.1,13.79,0.00,0.00
15min,AgWx,beryljct,423,12MAY2018:14:15:00,60.9,13.85,54.9,53.2,55.2,58.1,53.2,37,41,31,0.503,29.0,31.7,25.7,7.76,9.8,234,19,15.9,0.00286,0.00393,59.6,59.6,14,337,0,66.6,13.79,0.00,0.00
15min,AgWx,beryljct,423,12MAY2018:14:30:00,59.4,13.86,53.5,53.4,53.3,54.0,52.9,43,52,36,0.655,31.4,36.7,26.8,10.79,12.2,280,16,27.3,0.00320,0.00430,59.9,59.7,14,481,0,62.1,13.80,0.00,0.00
15min,AgWx,beryljct,423,12MAY2018:14:45:00,57.8,13.96,53.8,55.0,53.6,55.8,51.9,49,55,43,0.627,35.1,39.2,32.4,10.72,10.4,309,13,14.1,0.00401,0.00497,60.2,59.8,14,737,0,66.1,13.80,0.00,0.00
15min,AgWx,beryljct,423,12MAY2018:15:00:00,58.6,13.91,55.0,53.4,55.0,56.8,53.4,44,49,39,0.617,33.6,36.8,31.4,8.64,11.3,330,12,15.6,0.00406,0.00518,60.5,59.9,14,706,0,69.2,13.80,0.00,0.00
15min,AgWx,beryljct,423,12MAY2018:15:15:00,59.1,13.91,55.4,55.4,55.1,56.6,53.4,40,45,34,0.599,31.0,33.8,28.2,9.71,8.4,319,27,13.7,0.00358,0.00456,60.7,60.0,14,579,0,67.8,13.80,0.00,0.00
15min,AgWx,beryljct,423,12MAY2018:15:30:00,59.5,13.88,55.4,55.2,55.3,55.9,54.8,37,43,31,0.613,29.7,33.3,25.1,10.26,7.4,294,42,13.9,0.00298,0.00389,60.9,60.1,14,431,0,65.5,13.80,0.00,0.00
15min,AgWx,beryljct,423,12MAY2018:15:45:00,59.0,13.93,54.1,53.7,54.0,55.2,53.5,41,45,37,0.521,31.0,32.9,28.1,11.86,11.1,300,15,15.0,0.00241,0.00345,61.0,60.2,14,268,0,60.1,13.80,0.00,0.00
15min,AgWx,beryljct,423,12MAY2018:16:00:00,58.4,13.96,54.5,55.8,54.1,55.8,53.6,41,44,37,0.643,30.7,33.4,28.2,6.73,7.5,307,14,11.8,0.00258,0.00342,61.1,60.3,14,372,0,62.4,13.80,0.00,0.00
15min,AgWx,beryljct,423,12MAY2018:16:15:00,60.0,13.83,57.6,58.2,57.3,58.9,55.8,32,41,26,0.495,28.0,33.3,22.7,5.787,3.7,284,67,9.1,0.00461,0.00536,61.2,60.4,14,805,0,78.8,13.80,0.00,0.00
15min,AgWx,beryljct,423,12MAY2018:16:30:00,61.5,13.79,57.8,58.0,57.7,58.6,56.6,30,38,21,0.495,26.4,33.3,18.7,5.985,7.2,179,31,16.6,0.00293,0.00393,61.2,60.5,14,392,0,68.8,13.80,0.00,0.00
15min,AgWx,beryljct,423,12MAY2018:16:45:00,61.8,13.82,58.7,57.9,58.6,59.3,57.7,27,30,22,0.460,24.2,28.0,19.8,13.11,8.8,216,30,14.3,0.00327,0.00448,61.3,60.6,14,443,0,67.6,13.80,0.00,0.00
15min,AgWx,beryljct,423,12MAY2018:17:00:00,61.7,13.82,58.3,57.7,58.2,58.6,57.6,27,36,23,0.446,24.0,31.3,20.2,3.398,8.3,192,31,14.3,0.00281,0.00396,61.4,60.7,14,342,0,66.1,13.80,0.00,0.00
15min,AgWx,beryljct,423,12MAY2018:17:15:00,62.3,13.79,59.3,59.0,59.1,60.0,57.7,27,34,21,0.449,24.7,29.5,19.6,10.54,5.9,189,28,10.5,0.00315,0.00408,61.5,60.7,14,496,0,70.7,13.80,0.00,0.00
15min,AgWx,beryljct,423,12MAY2018:17:30:00,62.4,13.82,59.0,58.9,58.9,59.5,58.3,26,31,22,0.374,24.0,28.7,20.1,3.617,7.1,214,14,13.0,0.00267,0.00373,61.6,60.8,14,376,0,66.8,13.80,0.00,0.00
15min,AgWx,beryljct,423,12MAY2018:17:45:00,61.8,13.83,58.2,58.6,58.1,58.8,57.5,29,36,22,0.502,25.4,31.0,19.5,7.278,4.8,225,26,9.0,0.00185,0.00257,61.7,60.8,14,254,0,63.1,13.80,0.00,0.00
15min,AgWx,beryljct,423,12MAY2018:18:00:00,61.5,13.78,58.8,61.3,58.4,61.3,56.4,31,37,24,0.554,27.5,31.3,22.9,7.41,6.4,228,15,15.5,0.00286,0.00379,61.8,60.9,14,454,0,65.8,13.79,0.00,0.00
15min,AgWx,beryljct,423,12MAY2018:18:15:00,62.5,13.79,59.7,58.7,59.8,61.5,57.9,26,32,22,0.369,24.4,28.8,19.9,3.902,8.9,208,18,15.0,0.00290,0.00416,61.9,60.9,14,383,0,66.6,13.79,0.00,0.00
15min,AgWx,beryljct,423,12MAY2018:18:30:00,62.8,13.49,60.0,59.2,59.9,60.9,58.9,25,29,21,0.394,23.7,27.6,19.4,6.73,6.9,206,13,11.3,0.00258,0.00363,61.9,61.0,14,363,0,65.5,13.79,0.00,0.00
15min,AgWx,beryljct,423,12MAY2018:18:45:00,61.9,13.42,57.8,56.6,58.0,59.7,56.6,27,33,23,0.493,24.5,28.0,21.0,6.357,7.3,210,11,12.3,0.00132,0.00228,62.1,61.0,14,134,0,59.8,13.80,0.00,0.00
15min,AgWx,beryljct,423,12MAY2018:19:00:00,60.1,13.36,57.7,58.6,57.3,58.6,56.2,28,35,20,0.355,24.3,30.8,18.1,3.705,3.7,205,11,9.9,0.00066,0.00120,62.2,61.1,15,116,0,57.1,13.80,0.00,0.00
15min,AgWx,beryljct,423,12MAY2018:19:15:00,58.8,13.3,57.0,57.3,57.0,58.6,55.6,27,32,23,0.445,23.7,27.0,20.6,4.867,5.5,186,13,9.9,0.00089,0.00162,62.2,61.1,14,112,0,56.1,13.80,0.00,0.00
15min,AgWx,beryljct,423,12MAY2018:19:30:00,58.1,13.24,56.2,54.8,56.2,57.6,54.4,33,44,27,0.597,27.4,33.7,23.5,0.329,2.7,183,33,5.6,0.00049,0.00086,62.2,61.2,14,119,0,55.3,13.80,0.00,0.00
15min,AgWx,beryljct,423,12MAY2018:19:45:00,57.8,13.21,56.3,56.7,56.0,56.7,54.9,36,41,28,0.438,29.6,32.7,23.8,5.831,3.8,207,8.1,7.5,0.00053,0.00073,62.2,61.2,15,144,0,55.0,13.80,0.00,0.00
15min,AgWx,beryljct,423,12MAY2018:20:00:00,57.7,13.21,55.8,54.8,55.8,57.1,54.8,34,38,27,0.550,27.7,30.0,23.4,4.121,4.9,208,5.0,6.6,0.00050,0.00069,62.1,61.2,15,88,0,54.3,13.80,0.00,0.00
15min,AgWx,beryljct,423,12MAY2018:20:15:00,56.1,13.19,53.1,52.8,53.2,54.7,52.0,35,38,32,0.447,26.3,29.3,23.7,5.196,4.6,191,4.5,5.6,0.00029,0.00042,62.0,61.2,15,16,0,51.0,13.80,0.01,0.00
15min,AgWx,beryljct,423,12MAY2018:20:30:00,54.1,13.17,52.7,52.8,52.5,52.9,52.0,31,34,27,0.378,22.5,24.7,20.0,3.902,4.3,183,3.6,5.5,0.00028,0.00041,61.9,61.3,15,10,0,49.7,13.81,0.00,0.00
15min,AgWx,beryljct,423,12MAY2018:20:45:00,52.5,13.15,51.0,49.9,51.1,52.8,49.4,30,34,28,0.377,20.9,22.2,19.9,4.165,4.3,183,4.9,4.9,0.00026,0.00038,61.7,61.3,15,3,0,48.2,13.81,0.00,0.00
15min,AgWx,beryljct,423,12MAY2018:21:00:00,50.8,13.13,49.2,48.5,49.1,50.1,47.7,33,38,30,0.384,21.1,23.6,19.7,3.179,3.8,179,6.7,5.0,0.00018,0.00028,61.5,61.3,15,0,0,46.2,13.81,0.00,0.00
15min,AgWx,beryljct,423,12MAY2018:21:15:00,49.3,13.12,49.4,49.0,49.1,49.6,48.4,29,33,27,0.326,18.0,20.7,16.6,4.275,3.8,177,3.0,4.5,0.00020,0.00031,61.3,61.3,15,0,0,45.6,13.81,0.00,0.00
15min,AgWx,beryljct,423,12MAY2018:21:30:00,48.0,13.11,46.0,45.1,46.2,48.9,44.8,37,44,28,0.390,21.4,25.5,17.2,4.231,3.8,186,6.7,5.0,0.00015,0.00023,61.1,61.3,15,0,0,43.8,13.81,0.00,0.00
15min,AgWx,beryljct,423,12MAY2018:21:45:00,46.5,13.1,44.3,41.2,44.4,46.0,41.2,38,53,32,0.468,20.3,25.5,17.2,3.31,3.6,177,11,4.4,0.00013,0.00020,60.9,61.2,15,0,0,42.1,13.81,0.00,0.00
15min,AgWx,beryljct,423,12MAY2018:22:00:00,45.0,13.09,43.5,42.3,43.1,44.7,41.2,41,51,33,0.403,20.7,24.7,17.1,5.459,4.0,159,9.0,5.7,0.00013,0.00020,60.7,61.2,15,0,0,40.8,13.81,0.00,0.00
15min,AgWx,beryljct,423,12MAY2018:22:15:00,43.9,13.06,42.3,40.4,42.2,43.1,40.4,43,50,37,0.423,21.0,23.5,18.2,3.442,4.6,158,6.8,5.7,0.00016,0.00023,60.4,61.2,15,0,0,40.4,13.82,0.00,0.00
15min,AgWx,beryljct,423,12MAY2018:22:30:00,42.7,13.06,39.9,39.7,39.7,40.7,38.9,52,57,45,0.436,23.5,25.1,21.1,3.025,4.2,163,6.7,5.5,0.00008,0.00013,60.1,61.1,15,0,0,38.1,13.82,0.00,0.00
15min,AgWx,beryljct,423,12MAY2018:22:45:00,41.6,13.07,38.0,37.6,37.8,39.5,37.2,53,60,48,0.447,22.3,24.5,20.0,4.077,4.5,190,6.5,5.4,0.00009,0.00013,59.9,61.1,15,0,0,36.8,13.82,0.00,0.00
15min,AgWx,beryljct,423,12MAY2018:23:00:00,40.8,13.06,40.2,40.0,39.5,41.2,36.8,49,63,40,0.386,21.4,25.6,18.4,5.502,4.5,174,15,6.0,0.00012,0.00017,59.6,61.0,15,0,0,37.7,13.82,0.00,0.00
15min,AgWx,beryljct,423,12MAY2018:23:15:00,40.4,13.05,38.8,38.5,38.6,40.5,36.9,52,61,45,0.376,22.5,24.9,20.2,5.941,5.3,168,12,6.4,0.00013,0.00018,59.3,61.0,15,0,0,37.8,13.82,0.00,0.00
15min,AgWx,beryljct,423,12MAY2018:23:30:00,39.9,13.04,38.8,40.3,38.2,40.3,36.1,49,57,44,0.379,20.8,22.3,19.7,5.196,4.7,180,8.4,6.1,0.00012,0.00017,59.0,60.9,15,0,0,37.0,13.82,0.00,0.00
15min,AgWx,beryljct,423,12MAY2018:23:45:00,39.7,13.03,41.1,40.4,40.7,42.0,39.2,44,49,40,0.377,20.5,21.9,19.2,3.902,4.3,175,9.4,5.3,0.00013,0.00019,58.8,60.8,15,0,0,39.2,13.82,0.00,0.00
15min,AgWx,beryljct,423,13MAY2018:00:00:00,39.5,13.02,38.0,35.9,38.1,41.9,35.9,55,63,40,0.447,23.1,25.1,19.5,3.88,3.9,301,62,5.7,0.00006,0.00010,58.5,60.7,15,0,0,37.1,13.82,0.00,0.00
15min,AgWx,beryljct,423,13MAY2018:00:15:00,38.9,12.99,37.6,36.1,37.2,38.2,35.9,56,62,52,0.441,23.1,24.2,22.2,2.28,3.7,312,8.8,4.9,0.00004,0.00007,58.2,60.7,15,0,0,35.6,13.82,0.00,0.00
15min,AgWx,beryljct,423,13MAY2018:00:30:00,38.5,13,39.6,40.5,38.7,43.0,35.2,54,67,40,0.420,23.0,25.3,20.2,3.069,2.4,320,1.7,4.1,-0.00002,-0.00001,58.0,60.6,15,0,0,36.6,13.82,0.00,0.00
15min,AgWx,beryljct,423,13MAY2018:00:45:00,38.6,13,40.8,40.9,40.3,41.5,38.8,46,54,42,0.386,21.1,23.8,19.8,1.863,2.7,300,7.6,3.2,0.00002,0.00006,57.7,60.5,15,0,0,38.1,13.83,0.00,0.00
15min,AgWx,bigpiney,439,12MAY2018:01:00:00,43.7,12.67,40.1,39.9,39.9,40.0,39.8,89,89,88,0.740,36.8,37.1,36.7,10.41,10.5,164,8.5,13.4,0.00008,0.00010,47.8,46.6,54,0,100,0.0,.,0.00,0.00
15min,AgWx,bigpiney,439,12MAY2018:01:15:00,43.6,12.66,39.9,39.7,39.8,39.9,39.6,89,90,89,0.743,36.9,37.0,36.8,7.695,10.3,157,8.1,13.3,0.00007,0.00009,47.7,46.5,54,0,100,0.0,.,0.00,0.00
15min,AgWx,bigpiney,439,12MAY2018:01:30:00,43.4,12.63,39.9,39.6,39.6,39.7,39.6,90,90,90,0.746,36.9,37.0,36.8,7.914,10.8,160,10,15.6,0.00007,0.00008,47.6,46.5,54,0,100,0.0,.,0.00,0.00
15min,AgWx,bigpiney,439,12MAY2018:01:45:00,43.3,12.63,39.6,39.5,39.5,39.6,39.4,90,91,89,0.737,36.8,37.1,36.5,10.13,10.9,168,9.6,14.2,0.00007,0.00008,47.5,46.5,54,0,100,0.0,.,0.00,0.00
15min,AgWx,bigpiney,439,12MAY2018:02:00:00,43.1,12.62,39.6,39.3,39.3,39.4,39.3,90,91,90,0.740,36.7,36.9,36.6,11.31,10.7,176,9.0,13.9,0.00007,0.00008,47.4,46.5,54,0,100,0.0,.,0.00,0.00
15min,AgWx,bigpiney,439,12MAY2018:02:15:00,43.0,12.59,39.5,39.2,39.2,39.3,39.2,91,92,91,0.737,36.8,37.0,36.6,12.17,10.2,186,7.7,13.3,0.00006,0.00007,47.3,46.5,54,0,100,0.0,.,0.00,0.01
15min,AgWx,bigpiney,439,12MAY2018:02:30:00,42.8,12.6,39.3,39.0,39.2,39.3,39.0,91,92,90,0.741,36.8,37.0,36.6,11.27,9.9,185,7.5,15.1,0.00006,0.00007,47.2,46.4,54,0,100,0.0,.,0.00,0.00
15min,AgWx,bigpiney,439,12MAY2018:02:45:00,42.7,12.58,39.4,39.0,39.0,39.2,39.0,91,92,91,0.739,36.7,37.0,36.6,9.97,10.6,189,8.1,13.7,0.00006,0.00007,47.1,46.4,54,0,100,0.0,.,0.00,0.01
15min,AgWx,bigpiney,439,12MAY2018:03:00:00,42.6,12.57,39.1,38.8,38.9,39.1,38.8,92,92,91,0.734,36.7,37.0,36.5,4.779,6.6,190,10,12.3,0.00004,0.00006,47.0,46.3,54,0,100,0.0,.,0.00,0.02
15min,AgWx,bigpiney,439,12MAY2018:03:15:00,42.5,12.56,39.2,38.9,38.9,39.1,38.8,92,92,91,0.735,36.8,37.0,36.6,2.938,5.3,193,12,7.7,0.00004,0.00005,46.9,46.3,54,0,100,0.0,.,0.00,0.03
15min,AgWx,bigpiney,439,12MAY2018:03:30:00,42.4,12.56,39.3,38.9,38.9,39.0,38.8,92,92,92,0.735,36.7,36.9,36.6,2.214,2.8,184,8.2,3.8,0.00002,0.00003,46.8,46.3,54,0,100,0.0,.,0.00,0.00
15min,AgWx,bigpiney,439,12MAY2018:03:45:00,42.4,12.56,39.4,39.1,39.1,39.2,38.9,92,92,91,0.743,36.8,37.0,36.6,1.228,1.6,208,18,2.9,0.00001,0.00002,46.7,46.3,54,0,100,0.0,.,0.00,0.00
15min,AgWx,bigpiney,439,12MAY2018:04:00:00,42.5,12.55,39.6,39.2,39.1,39.2,39.0,92,92,92,0.744,36.9,37.1,36.8,0.592,2.1,231,13,3.4,0.00001,0.00002,46.6,46.3,54,0,100,0.0,.,0.00,0.00
15min,AgWx,bigpiney,439,12MAY2018:04:15:00,42.5,12.54,39.7,39.3,39.2,39.5,39.1,91,92,89,0.727,36.8,37.1,36.4,0,2.0,210,33,4.5,0.00002,0.00002,46.4,46.2,54,0,100,0.0,.,0.00,0.00
15min,AgWx,bigpiney,439,12MAY2018:04:30:00,42.5,12.54,39.9,39.5,39.4,39.5,39.3,89,90,89,0.734,36.5,36.7,36.3,2.521,0.9,96,15,3.3,0.00000,0.00000,46.3,46.2,54,0,100,0.0,.,0.00,0.00
15min,AgWx,bigpiney,439,12MAY2018:04:45:00,42.6,12.54,39.8,39.5,39.5,39.6,39.4,90,91,89,0.740,36.8,37.1,36.5,5.042,4.4,55,16,6.2,0.00004,0.00006,46.2,46.2,54,0,100,0.0,.,0.00,0.00
15min,AgWx,bigpiney,439,12MAY2018:05:00:00,42.7,12.54,39.4,39.0,39.2,39.6,39.0,91,92,90,0.727,36.8,37.2,36.4,5.064,4.7,46,12,7.7,0.00004,0.00005,46.2,46.1,54,0,100,0.0,.,0.00,0.00
15min,AgWx,bigpiney,439,12MAY2018:05:15:00,42.6,12.53,39.1,38.9,38.9,39.0,38.8,89,90,88,0.718,35.9,36.3,35.7,3.288,5.0,49,7.2,7.4,0.00005,0.00007,46.0,46.1,54,0,100,0.0,.,0.00,0.00
15min,AgWx,bigpiney,439,12MAY2018:05:30:00,42.5,12.54,39.0,38.6,38.7,38.9,38.6,90,91,89,0.709,36.0,36.3,35.5,2.981,4.1,37,12,5.7,0.00004,0.00005,45.9,46.1,54,0,100,0.0,.,0.00,0.00
15min,AgWx,bigpiney,439,12MAY2018:05:45:00,42.5,12.53,38.8,38.5,38.5,38.7,38.4,89,90,88,0.698,35.7,36.0,35.3,1.491,2.6,21,13,3.9,0.00003,0.00004,45.9,46.1,54,0,100,0.0,.,0.00,0.00
15min,AgWx,bigpiney,439,12MAY2018:06:00:00,42.4,12.52,38.5,38.3,38.4,38.5,38.2,89,89,88,0.691,35.3,35.5,35.0,1.6,2.4,321,20,3.5,0.00003,0.00004,45.8,46.1,54,0,100,0.0,.,0.00,0.01
15min,AgWx,bigpiney,439,12MAY2018:06:15:00,42.2,12.52,38.4,38.3,38.3,38.4,38.2,89,90,88,0.703,35.4,35.7,35.1,2.959,2.5,278,17,3.6,0.00006,0.00010,45.7,46.0,54,1,100,0.0,.,0.00,0.00
15min,AgWx,bigpiney,439,12MAY2018:06:30:00,42.1,12.52,38.4,38.3,38.3,38.5,38.2,91,92,89,0.717,35.8,36.1,35.5,4.801,4.0,240,9.5,5.8,0.00008,0.00013,45.6,46.0,54,2,100,0.0,.,0.00,0.01
15min,AgWx,bigpiney,439,12MAY2018:06:45:00,41.9,12.52,38.3,38.1,38.2,38.3,38.1,92,92,91,0.715,35.9,36.1,35.8,5.568,4.7,238,10,6.2,0.00008,0.00013,45.5,45.9,54,2,100,0.0,.,0.00,0.03
15min,AgWx,bigpiney,439,12MAY2018:07:00:00,41.7,12.52,37.8,37.4,37.8,38.2,37.4,91,92,90,0.685,35.5,36.0,34.9,7.629,6.0,245,16,8.8,0.00010,0.00017,45.5,45.9,54,4,100,0.0,.,0.00,0.03
15min,AgWx,bigpiney,439,12MAY2018:07:15:00,41.4,12.55,36.2,36.0,36.5,37.5,35.9,90,92,89,0.656,33.9,34.9,33.5,6.949,7.3,262,9.7,11.0,0.00020,0.00028,45.4,45.9,54,24,100,0.0,.,0.00,0.02
15min,AgWx,bigpiney,439,12MAY2018:07:30:00,40.9,12.58,35.9,35.6,35.9,36.0,35.6,92,92,92,0.649,33.8,34.0,33.5,5.831,7.0,260,14,9.8,0.00025,0.00033,45.3,45.9,54,45,100,0.0,.,0.00,0.00
15min,AgWx,bigpiney,439,12MAY2018:07:45:00,40.7,12.71,36.9,36.5,36.1,36.6,35.6,92,92,91,0.664,33.9,34.3,33.5,7.3,6.6,270,18,10.9,0.00036,0.00044,45.3,45.9,54,93,100,0.0,.,0.00,0.01
15min,AgWx,bigpiney,439,12MAY2018:08:00:00,40.7,12.69,38.5,37.9,37.2,37.9,36.5,90,91,89,0.690,34.5,35.1,33.8,6.314,5.8,260,10,8.6,0.00048,0.00057,45.2,45.8,54,116,100,0.0,.,0.00,0.00
15min,AgWx,bigpiney,439,12MAY2018:08:15:00,41.0,12.66,39.1,38.5,38.1,38.5,37.8,88,90,87,0.693,34.9,35.4,34.6,4.691,7.1,249,8.3,10.0,0.00044,0.00056,45.1,45.8,54,81,100,0.0,.,0.00,0.00
15min,AgWx,bigpiney,439,12MAY2018:08:30:00,41.4,12.87,40.0,39.7,38.9,39.7,38.4,88,90,86,0.721,35.7,36.2,35.0,6.445,5.4,240,12,7.7,0.00062,0.00073,45.0,45.7,54,135,100,0.0,.,0.00,0.00